Monroe, LA

5:29 AM CST on December 14, 2017 (GMT -0600)
Monroe Regional

Weather History for KMLU - April, 2014

Change the Weather History Date:

Thursday, April 24, 2014

  Actual Average Record
Temperature  
Mean Temperature 69 °F 68 °F  
Max Temperature 83 °F 80 °F 91 °F (1965)
Min Temperature 54 °F 56 °F 43 °F (2005)
Degree Days  
Heating Degree Days 0 1  
Month to date heating degree days 106 75  
Since 1 July heating degree days 2806 2219  
Cooling Degree Days 4 4  
Month to date cooling degree days 53 72  
Year to date cooling degree days 62 115  
Growing Degree Days 18 (Base 50)    
Moisture  
Dew Point 60 °F    
Average Humidity 76    
Maximum Humidity 93    
Minimum Humidity 58    
Precipitation  
Precipitation T in 0.16 in 3.03 in (1964)
Month to date precipitation 7.88 3.60  
Year to date precipitation 16.65 17.96  
Snow  
Snow 0.00 in - - ()
Month to date snowfall 0.0  
Since 1 July snowfall 0.5  
Snow Depth 0.00 in    
Sea Level Pressure  
Sea Level Pressure 29.88 in    
Wind  
Wind Speed 7 mph (SSW)    
Max Wind Speed 21 mph    
Max Gust Speed 26 mph    
Visibility 7 miles    
Events Fog    
T = Trace of Precipitation, MM = Missing Value Source: NWS Daily Summary

Daily Weather History Graph

Daily Weather History Graph

Search for Another Location

Airport or City:

Trip Planner

Search our weather history database for the weather conditions in past years. The results will help you decide how hot, cold, wet, or windy it might be!

Date:

Astronomy

Apr. 24, 2014 Rise Set
Actual Time 6:28 AM CDT 7:44 PM CDT
Civil Twilight 6:02 AM CDT 8:10 PM CDT
Nautical Twilight 5:32 AM CDT 8:40 PM CDT
Astronomical Twilight 5:00 AM CDT 9:12 PM CDT
Moon 3:22 AM CDT (4/24) 3:15 PM CDT (4/24)
Length of Visible Light 14h 07m
Length of Day
13h 15m
Waning Crescent, 24% of the Moon is Illuminated
Apr 24
Waning Crescent
Apr 29
New
May 6
First Quarter
May 14
Full
May 21
Last Quarter

Hourly Weather History & Observations

Time (CDT) Temp. Heat Index Dew Point Humidity Pressure Visibility Wind Dir Wind Speed Gust Speed Precip Events Conditions
12:53 AM 57.0 °F - 48.0 °F 72% 29.90 in 10.0 mi Calm Calm - N/A   Clear
1:53 AM 55.0 °F - 48.9 °F 80% 29.88 in 10.0 mi Calm Calm - N/A   Clear
2:53 AM 59.0 °F - 48.0 °F 67% 29.88 in 10.0 mi Variable 3.5 mph - N/A   Clear
3:53 AM 55.0 °F - 48.9 °F 80% 29.88 in 10.0 mi Calm Calm - N/A   Clear
4:53 AM 55.9 °F - 48.9 °F 77% 29.90 in 10.0 mi Calm Calm - N/A   Clear
5:53 AM 55.0 °F - 51.1 °F 86% 29.91 in 10.0 mi Calm Calm - N/A   Partly Cloudy
6:53 AM 55.0 °F - 51.1 °F 86% 29.92 in 10.0 mi Calm Calm - N/A   Clear
7:22 AM 55.4 °F - 53.6 °F 94% 29.93 in 10.0 mi Calm Calm - N/A   Scattered Clouds
7:34 AM 60.8 °F - 55.4 °F 82% 29.93 in 10.0 mi South 3.5 mph - N/A   Mostly Cloudy
7:53 AM 61.0 °F - 57.9 °F 90% 29.93 in 3.0 mi Calm Calm - N/A   Overcast
7:57 AM 60.8 °F - 59.0 °F 94% 29.93 in 1.8 mi South 3.5 mph - N/A   Overcast
8:07 AM 60.8 °F - 60.8 °F 100% 29.93 in 0.8 mi South 4.6 mph - N/A   Overcast
8:14 AM 62.6 °F - 60.8 °F 94% 29.92 in 2.0 mi SSE 5.8 mph - N/A   Overcast
8:20 AM 60.8 °F - 60.8 °F 100% 29.92 in 0.8 mi South 5.8 mph - N/A   Overcast
8:31 AM 60.8 °F - 60.8 °F 100% 29.92 in 0.2 mi South 8.1 mph - N/A Fog Fog
8:44 AM 62.6 °F - 60.8 °F 94% 29.91 in 1.0 mi SSE 9.2 mph - N/A   Overcast
8:53 AM 62.1 °F - 61.0 °F 96% 29.91 in 0.8 mi SSE 8.1 mph - N/A   Overcast
9:07 AM 64.4 °F - 62.6 °F 94% 29.92 in 2.0 mi South 6.9 mph - N/A   Overcast
9:15 AM 64.4 °F - 62.6 °F 94% 29.92 in 5.0 mi South 5.8 mph - N/A   Overcast
9:33 AM 69.8 °F - 62.6 °F 78% 29.92 in 7.0 mi South 8.1 mph - N/A   Scattered Clouds
9:53 AM 72.0 °F - 63.0 °F 73% 29.91 in 9.0 mi SW 6.9 mph - N/A   Clear
10:53 AM 73.9 °F - 63.0 °F 68% 29.92 in 10.0 mi SSW 9.2 mph - N/A   Partly Cloudy
11:53 AM 77.0 °F - 64.0 °F 64% 29.90 in 10.0 mi South 10.4 mph - N/A   Partly Cloudy
12:53 PM 77.0 °F - 63.0 °F 62% 29.89 in 10.0 mi South 10.4 mph - N/A   Overcast
1:53 PM 81.0 °F 82.7 °F 64.9 °F 58% 29.87 in 10.0 mi SSW 13.8 mph 20.7 mph N/A   Mostly Cloudy
2:53 PM 80.1 °F 81.9 °F 64.9 °F 60% 29.81 in 10.0 mi South 10.4 mph 23.0 mph N/A   Mostly Cloudy
3:53 PM 78.1 °F - 64.9 °F 64% 29.80 in 10.0 mi South 8.1 mph 18.4 mph N/A   Overcast
4:53 PM 79.0 °F - 64.9 °F 62% 29.76 in 10.0 mi South 12.7 mph 26.5 mph N/A   Overcast
5:53 PM 78.1 °F - 66.0 °F 66% 29.78 in 10.0 mi SW 12.7 mph 20.7 mph N/A   Overcast
6:53 PM 77.0 °F - 64.9 °F 66% 29.79 in 10.0 mi WSW 16.1 mph 24.2 mph N/A   Overcast
7:53 PM 73.0 °F - 66.0 °F 79% 29.81 in 6.0 mi WSW 10.4 mph - 0.00 in   Haze
8:53 PM 71.1 °F - 66.0 °F 84% 29.84 in 10.0 mi SW 9.2 mph - N/A   Clear
9:53 PM 69.1 °F - 64.9 °F 87% 29.86 in 8.0 mi SSW 5.8 mph - N/A   Scattered Clouds
10:53 PM 69.1 °F - 64.9 °F 87% 29.87 in 10.0 mi SW 4.6 mph - N/A   Mostly Cloudy
11:53 PM 71.1 °F - 64.9 °F 81% 29.88 in 10.0 mi WSW 9.2 mph - 0.00 in   Scattered Clouds